Weather History for KJAX - April, 2013

Change the Weather History Date:

Monday, April 29, 2013

  Actual Average Record
Temperature  
Mean Temperature 73 °F 70 °F  
Max Temperature 83 °F 82 °F 93 °F (1991)
Min Temperature 62 °F 58 °F 43 °F (1973)
Degree Days  
Heating Degree Days 0 1  
Month to date heating degree days 41 55  
Since 1 July heating degree days 1238 1344  
Cooling Degree Days 8 6  
Month to date cooling degree days 119 108  
Year to date cooling degree days 211 191  
Growing Degree Days 23 (Base 50)    
Moisture  
Dew Point 63 °F    
Average Humidity 74    
Maximum Humidity 100    
Minimum Humidity 47    
Precipitation  
Precipitation 0.23 in 0.07 in 1.50 in (1998)
Month to date precipitation 3.06 2.57  
Year to date precipitation 11.85 13.01  
Snow  
Snow 0.00 in 0.00 in 0.00 in (2002)
Month to date snowfall 0.0 0.0  
Since 1 July snowfall 0.0 T  
Snow Depth 0.00 in    
Sea Level Pressure  
Sea Level Pressure 30.00 in    
Wind  
Wind Speed 5 mph (SW)    
Max Wind Speed 20 mph    
Max Gust Speed 24 mph    
Visibility 10 miles    
Events Thunderstorm    
T = Trace of Precipitation, MM = Missing Value Source: NWS Daily Summary

Daily Weather History Graph

Daily Weather History Graph

Search for Another Location

Airport or City:

Trip Planner

Search our weather history database for the weather conditions in past years. The results will help you decide how hot, cold, wet, or windy it might be!

Date:

Astronomy

Apr. 29, 2013 Rise Set
Actual Time 6:44 AM EDT 8:03 PM EDT
Civil Twilight 6:19 AM EDT 8:29 PM EDT
Nautical Twilight 5:49 AM EDT 8:59 PM EDT
Astronomical Twilight 5:17 AM EDT 9:31 PM EDT
Moon No Moon Rise 10:10 AM EDT
Length of Visible Light 14h 09m
Length of Day
13h 18m
Waning Gibbous, 80% of the Moon is Illuminated
Apr 29
Waning Gibbous
May 2
Last Quarter
May 9
New
May 18
First Quarter
May 25
Full

Hourly Weather History & Observations

Time (EDT) Temp. Heat Index Dew Point Humidity Pressure Visibility Wind Dir Wind Speed Gust Speed Precip Events Conditions
12:56 AM 69.1 °F - 63.0 °F 81% 30.04 in 10.0 mi Calm Calm - N/A   Mostly Cloudy
1:56 AM 66.9 °F - 63.0 °F 87% 30.04 in 10.0 mi Calm Calm - N/A   Overcast
2:56 AM 66.9 °F - 63.0 °F 87% 30.02 in 10.0 mi Calm Calm - N/A   Mostly Cloudy
3:56 AM 66.9 °F - 64.0 °F 90% 30.02 in 10.0 mi Calm Calm - N/A   Overcast
4:56 AM 66.9 °F - 63.0 °F 87% 30.01 in 10.0 mi Calm Calm - N/A   Overcast
5:56 AM 66.9 °F - 63.0 °F 87% 30.01 in 10.0 mi Calm Calm - N/A   Overcast
6:56 AM 66.9 °F - 63.0 °F 87% 30.01 in 10.0 mi SW 3.5 mph - N/A   Mostly Cloudy
7:56 AM 69.1 °F - 64.0 °F 84% 30.02 in 10.0 mi SSE 6.9 mph - N/A   Mostly Cloudy
8:56 AM 72.0 °F - 64.9 °F 78% 30.02 in 10.0 mi South 8.1 mph - N/A   Overcast
9:56 AM 73.0 °F - 64.9 °F 76% 30.03 in 10.0 mi South 9.2 mph - N/A   Mostly Cloudy
10:56 AM 75.9 °F - 64.9 °F 69% 30.04 in 10.0 mi SSW 12.7 mph - N/A   Mostly Cloudy
11:56 AM 79.0 °F - 64.0 °F 60% 30.03 in 10.0 mi SW 10.4 mph - N/A   Mostly Cloudy
12:56 PM 79.0 °F - 63.0 °F 58% 30.02 in 10.0 mi SW 8.1 mph - N/A   Mostly Cloudy
1:56 PM 80.1 °F 81.9 °F 64.9 °F 60% 29.99 in 10.0 mi SSW 5.8 mph - N/A   Overcast
2:56 PM 81.0 °F 82.2 °F 63.0 °F 54% 29.96 in 10.0 mi SW 6.9 mph - N/A   Overcast
3:56 PM 82.0 °F 83.1 °F 63.0 °F 52% 29.94 in 10.0 mi WSW 10.4 mph - N/A   Mostly Cloudy
4:56 PM 82.0 °F 82.7 °F 61.0 °F 49% 29.93 in 10.0 mi WSW 8.1 mph - N/A   Mostly Cloudy
5:56 PM 73.9 °F - 64.0 °F 71% 29.95 in 10.0 mi NNW 9.2 mph - N/A   Mostly Cloudy
6:10 PM 73.4 °F - 62.6 °F 69% 29.96 in 10.0 mi NNW 12.7 mph - N/A Thunderstorm Thunderstorm
6:50 PM 68.0 °F - 64.4 °F 88% 29.98 in 10.0 mi NNW 5.8 mph - 0.00 in   Overcast
6:56 PM 68.0 °F - 64.9 °F 90% 29.99 in 10.0 mi NW 4.6 mph - 0.00 in   Overcast
7:56 PM 64.9 °F - 63.0 °F 93% 29.98 in 10.0 mi NNW 4.6 mph - 0.15 in   Mostly Cloudy
8:56 PM 64.9 °F - 63.0 °F 93% 30.00 in 10.0 mi SSE 8.1 mph - 0.08 in   Mostly Cloudy
9:56 PM 64.9 °F - 64.0 °F 97% 29.99 in 10.0 mi West 4.6 mph - N/A   Overcast
10:48 PM 64.4 °F - 62.6 °F 94% 29.98 in 10.0 mi Calm Calm - N/A   Mostly Cloudy
10:56 PM 64.0 °F - 62.1 °F 93% 29.99 in 10.0 mi ESE 5.8 mph - N/A   Mostly Cloudy
11:56 PM 63.0 °F - 62.1 °F 97% 29.97 in 5.0 mi South 3.5 mph - N/A   Scattered Clouds